Regional Weather Roundup
Issued by NWS

Home | Current Version | Previous Version | Graphics & Text | Print | Product List | Glossary On
Versions: 1 2 3 4 5 6 7 8 9 10 11 12 13 14 15 16 17 18 19 20 21 22 23 24 25 26 27 28 29 30 31 32
000
ASUS45 KGTF 061426
RWRMT
MONTANA HOURLY WEATHER ROUNDUP
NATIONAL WEATHER SERVICE GREAT FALLS MT
800 AM MDT WED MAY 06 2015

NOTE: "FAIR" INDICATES FEW OR NO CLOUDS BELOW 12000 FEET WITH NO
SIGNIFICANT WEATHER AND/OR OBSTRUCTIONS TO VISIBILITY.

MTZ001>007-043-061500-
WEST OF THE DIVIDE

CITY           SKY/WX    TMP DP  RH WIND       PRES   REMARKS
KALISPELL      SUNNY     37  29  72 CALM      29.96R
MISSOULA       MOSUNNY   37  26  64 CALM      29.98R
BUTTE          MOSUNNY   38  25  59 NW5       29.93R
DEER LODGE       N/A     39  27  60 NE7       29.97S
EUREKA           N/A     39  27  60 SE3       29.98S
HAMILTON         N/A     41  27  56 S1        29.96R
LIBBY            N/A     37  27  65 CALM      29.99R
$$

MTZ008-052>055-061500-
SOUTHWEST MONTANA

CITY           SKY/WX    TMP DP  RH WIND       PRES   REMARKS
BOZEMAN        CLOUDY    42  35  76 W12       29.92R
DILLON         CLOUDY    40  35  83 CALM      29.90R
$$

MTZ009-010-012-014-046-048-049-054-061500-
EAST SLOPES AND CENTRAL MONTANA

CITY           SKY/WX    TMP DP  RH WIND       PRES   REMARKS
CUT BANK       CLOUDY    38  33  82 NW12G21   29.94R WCI  30
GREAT FALLS    MOSUNNY   42  33  70 N9        29.93R
MALMSTROM AFB  PTSUNNY   40  35  81 N5        29.94R
HELENA         PTSUNNY   48  28  46 NW9       29.92R
$$

MTZ011-013-016-021-045-047-050-051-061500-
NORTH CENTRAL MONTANA

CITY           SKY/WX    TMP DP  RH WIND       PRES   REMARKS
HAVRE          PTSUNNY   44  38  79 W14       29.89R
LEWISTOWN      MOSUNNY   43  32  65 W10       29.90R
CHINOOK          N/A     45  39  81 W16       29.88R
FORT BENTON      N/A     45  36  70 W8        29.95R
$$

MTZ017>020-022>042-056>058-061-062-061500-
EASTERN PLAINS

CITY           SKY/WX    TMP DP  RH WIND       PRES   REMARKS
BAKER          CLOUDY    55  51  86 SE14      29.72S
BILLINGS       CLOUDY    48  41  76 N12G22    29.81R
GLASGOW        CLOUDY    53  44  71 NW15      29.74R
JORDAN           N/A     52  44  74 NW21G26   29.77R
LIVINGSTON     CLOUDY    45  36  70 SW5       29.87R
MILES CITY     CLOUDY    56  46  69 N15       29.73R
SIDNEY         PTSUNNY   61  52  72 S7        29.69S
WOLF POINT     PTSUNNY   58  47  66 N12G20    29.69R
BIG TIMBER       N/A     43  34  70 CALM      29.89R
PLENTYWOOD       N/A     57  54  88 S6        29.70R
POPLAR           N/A     52  52 100 W7        29.69R
$$

REGIONAL REPORTS...DAKOTAS

CITY           SKY/WX    TMP DP  RH WIND       PRES   REMARKS
WILLISTON      PTSUNNY   60  53  77 S12       29.70R
MINOT          CLOUDY    60  56  86 SE15      29.76F
DICKINSON      CLOUDY    57  54  89 SE16      29.73S
BEACH          CLOUDY    54  54 100 S10       29.73S FOG
CROSBY         FAIR      59  59 100 S18G26    29.69F
TIOGA          FAIR      57  57 100 S20       29.74S
WATFORD CITY   CLOUDY    57  54  88 SE14      29.70R
BISMARCK       LGT RAIN  59  58  96 SE10      29.78F FOG
GRAND FORKS    CLOUDY    60  56  86 S18G25    29.90F
FARGO          LGT RAIN  60  55  83 SE20G30   29.91F
BUFFALO SD       N/A     55  54  96 SE10      29.66F
RAPID CITY     LGT RAIN  54  53  97 SE8       29.71S FOG
$$

REGIONAL REPORTS...WYOMING/IDAHO/WASHINGTON

CITY           SKY/WX    TMP DP  RH WIND       PRES   REMARKS
GILLETTE       CLOUDY    52  46  80 W14       29.70S
SHERIDAN       LGT RAIN  50  47  89 NW18      29.78R
BUFFALO WY     CLOUDY    49  46  90 N23       29.77R
CODY           CLOUDY    48  43  81 N12G20    29.82R
YELLOWSTONE LA   N/A     37  34  89 CALM      29.90S
IDAHO FALLS    PTSUNNY   46  32  58 SW16      29.84R
SALMON         SUNNY     43  30  61 CALM      29.89S
BOISE          PTSUNNY   43  28  55 NW9       29.89R
SPOKANE        MOSUNNY   38  27  64 S7        29.98R
$$

REGIONAL REPORTS...ALBERTA

CITY           SKY/WX    TMP DP  RH WIND       PRES   REMARKS
EDMONTON       LGT SNOW  30  28  93 NW17      29.95R VSB 5/8 WCI  18
CALGARY        PTSUNNY   36  28  75 N18G25    29.95R WCI  25
LETHBRIDGE     PTSUNNY   39  32  75 NW20      29.96R WCI  30
MEDICINE HAT   CLOUDY    41  36  81 NW15G23   29.91R
$$

REGIONAL REPORTS...SASKATCHEWAN

CITY           SKY/WX    TMP DP  RH WIND       PRES   REMARKS
SWIFT CURRENT  CLOUDY    45  39  81 W24       29.76R
REGINA         MOSUNNY   57  50  77 SE9       29.69R
SASKATOON      LGT RAIN  45  43  93 N6        29.71S
$$



USA.gov is the U.S. government's official web portal to all federal, state and local government web resources and services.